Content
SEND FEEDBACK

Daily
Averages
Monthly
Summary
United States of America

RALEIGH, NORTH CAROLINA


Home > North America > United States > North Carolina
Elevation: 376 feet     Latitude: 35 52N     Longitude: 078 47W

WEATHER
 
SELECT A DAY
Number of Records: 193,160;   Date Range: 1/1/95 - 9/21/14
 
SHARE

PRINT THIS DATA

[ ← Previous Day ]
WEATHER ALMANAC - APRIL 10, 2013
[ Next Day → ]
[ °C ]   °F
Weather ElementAverageHighLow
Temperature73.7 °F84.9 °F (3:51 pm)61 °F (6:51 am)
Dewpoint57.7 °F61 °F (10:51 am)55 °F (1:51 am)
Humidity59.8 %87 % (6:51 am)37 % (4:51 pm)
Barometer30.03 in30.10 in (7:51 am)29.94 in (7:51 pm)
Wind Speed11.6 mph17.3 mph (4:51 pm)
Wind Gust24.2 mph (5:51 pm)
Weather ElementAverage
Visibility10 mi
Wind DirectionSW (223.5 °)

Weather ElementTotal
Precipitation---
Cooling Degree Days8 (Base 65)
Growing Degree Days23 (Base 50)
Averaged from 23 records on April 10, 2013
WEATHER CONDITIONS BREAKOUT
WIND DIRECTION BREAKOUT
WEATHER BY HOUR - APRIL 10, 2013
[ °C ]   °F
Local TimeTemperatureDewpointHumidityBarometerVisibilityWind DirectionWind SpeedGust SpeedPrecipitationEventsConditions
1:51 AM66.9 °F55.0 °F66 %30.06 in10.0 miSSW (210°)9.2 mphPartly Cloudy
2:51 AM66.0 °F55.9 °F70 %30.05 in10.0 miSW (220°)11.5 mphScattered Clouds
3:51 AM64.0 °F55.9 °F75 %30.06 in10.0 miSW (220°)9.2 mphMostly Cloudy
4:51 AM63.0 °F55.9 °F78 %30.06 in10.0 miSW (230°)9.2 mphMostly Cloudy
5:51 AM62.1 °F57.0 °F84 %30.08 in10.0 miSW (230°)8.1 mphMostly Cloudy
6:51 AM61.0 °F57.0 °F87 %30.09 in10.0 miSW (230°)8.1 mphScattered Clouds
7:51 AM63.0 °F57.9 °F84 %30.10 in10.0 miWSW (240°)8.1 mphScattered Clouds
8:51 AM66.9 °F59.0 °F76 %30.10 in10.0 miSW (230°)12.7 mphPartly Cloudy
9:51 AM71.1 °F60.1 °F68 %30.10 in10.0 miSW (230°)13.8 mphPartly Cloudy
10:51 AM75.0 °F61.0 °F62 %30.09 in10.0 miSW (230°)10.4 mphPartly Cloudy
11:51 AM78.1 °F61.0 °F56 %30.08 in10.0 miSW (220°)11.5 mphPartly Cloudy
12:51 PM81.0 °F60.1 °F49 %30.06 in10.0 miSW (230°)16.1 mph23.0 mphScattered Clouds
1:51 PM82.9 °F59.0 °F44 %30.04 in10.0 miSSW (210°)9.2 mph17.3 mphScattered Clouds
2:51 PM84.0 °F59.0 °F43 %30.02 in10.0 miSW (230°)13.8 mph20.7 mphClear
3:51 PM84.9 °F57.0 °F38 %29.98 in10.0 miSW (230°)15.0 mph23.0 mphClear
4:51 PM84.9 °F55.9 °F37 %29.96 in10.0 miSW (230°)17.3 mph21.9 mphClear
5:51 PM82.9 °F57.0 °F41 %29.96 in10.0 miSW (230°)13.8 mph24.2 mphClear
6:51 PM81.0 °F57.0 °F44 %29.95 in10.0 miSW (220°)11.5 mphClear
7:51 PM79.0 °F57.0 °F47 %29.94 in10.0 miSW (220°)12.7 mphClear
8:51 PM77.0 °F57.0 °F50 %29.96 in10.0 miSSW (210°)12.7 mph19.6 mphClear
9:51 PM75.0 °F57.0 °F53 %29.96 in10.0 miSSW (210°)11.5 mphClear
10:51 PM73.4 °F57.2 °F57 %29.96 in10.0 miSW (220°)11.5 mphClear
11:51 PM71.1 °F59.0 °F66 %29.96 in10.0 miSSW (210°)10.4 mphClear
Hourly data recorded from KRDU, located miles away from Raleigh, North Carolina







STORIES FROM OUR PARTNERS